Miscellaneous Local Product
Issued by NWS North Platte, NE

Home | Current Version | Previous Version | Graphics & Text | Print | Product List | Glossary On
Versions: 1 2 3 4 5 6 7 8 9 10 11 12 13 14 15 16 17 18 19 20 21 22 23 24 25 26 27 28 29 30 31 32 33 34 35 36 37 38 39 40 41 42 43 44 45 46 47 48 49 50
738
AXUS43 KLBF 240510
MISLBF


WESTERN AND NORTH CENTRAL NEBRASKA HOURLY WEATHER ROUNDUP
NATIONAL WEATHER SERVICE NORTH PLATTE NE
1200 AM CDT SAT JUN 24 2017

NOTE: "FAIR" INDICATES FEW OR NO CLOUDS BELOW 12,000 FEET WITH NO
SIGNIFICANT WEATHER AND/OR OBSTRUCTIONS TO VISIBILITY.

NOTE: STATIONS NOT REPORTING VARIABLES SUCH AS SKY/WEATHER OR
PRESSURE ARE PROVIDED BY RAWS AND APRS NETWORKS AND ARE NOT UNDER
NATIONAL WEATHER SERVICE QUALITY CONTROL.

...OBSERVATIONS IN AND NEAR THE EASTERN PANHANDLE OF NEBRASKA...

CITY           SKY/WX    TMP DP  RH WIND       PRES   REMARKS
PINE RIDGE     CLEAR     45  37  73 E3        30.25R
GORDON         FAIR      48  37  65 CALM      30.25S
CHADRON        CLEAR     47  37  68 CALM      30.26R
ALLIANCE       PTCLDY    44  36  73 S5        30.27R
SIDNEY         CLEAR     52  34  50 N8        30.29R
CRESCENT LAKE    N/A     56  37  48 NE5G12      N/A
$$

...OBSERVATIONS IN NORTHERN NEBRASKA AND FAR SOUTHERN SOUTH DAKOTA...

CITY           SKY/WX    TMP DP  RH WIND       PRES   REMARKS
WINNER         FAIR      52  35  52 W6        30.17R
VALENTINE      CLEAR     50  32  50 W6        30.21R
THEDFORD       CLEAR     53  37  54 CALM      30.24R
AINSWORTH      CLEAR     52  37  55 W6        30.21R
O`NEILL        PTCLDY    53  42  65 W3        30.17S
ORD            CLEAR     51  39  63 NW6       30.17R
BROKEN BOW     CLEAR     54  40  59 N8        30.20R
VALENTINE NWR    N/A     52  38  58 CALM        N/A
HALSEY           N/A     55  35  46 CALM        N/A
BUTTE            N/A     53  35  50 W3          N/A
CHAMBERS         N/A     51  32  48 CALM        N/A
EWING            N/A     53  40  62 CALM        N/A
$$

...OBSERVATIONS IN SOUTHWEST NEBRASKA AND FAR NORTHEAST COLORADO...

CITY           SKY/WX    TMP DP  RH WIND       PRES   REMARKS
WRAY           FAIR      55  48  76 N8        30.26R
IMPERIAL       CLEAR     53  41  63 NE6       30.25R
OGALLALA       CLEAR     57  36  45 NE5       30.25R
NORTH PLATTE   CLEAR     52  44  74 CALM      30.23R
MCCOOK         CLEAR     56  45  66 NE6       30.22R
LEXINGTON      CLEAR     54  47  79 NW3       30.20R
STAPLETON        N/A     54  38  55 CALM        N/A
GOTHENBURG       N/A     61  39  44 CALM        N/A
CALLAWAY         N/A     58  39  49 NE6         N/A
$$

...OBSERVATIONS IN CENTRAL LINCOLN COUNTY AREA...

CITY           SKY/WX    TMP DP  RH WIND       PRES   REMARKS
N.P. AIRPORT   CLEAR     52  44  74 CALM      30.23R
N.P. DOWNTOWN    N/A     60  41  49 CALM        N/A
N.P. SOUTHEAST   N/A     56  40  55 CALM        N/A
N.P. HILLCREST   N/A     57  39  51 NE6         N/A
$$

...SOME OBSERVATIONS FROM AROUND THE REGION...

CITY           SKY/WX    TMP DP  RH WIND       PRES   REMARKS
DENVER         MOCLDY    54  46  74 SW5       30.34R
LIMON          CLEAR     47  41  80 CALM      30.34R
ASPEN          CLOUDY    52  31  44 SW9       30.32R
LARAMIE        CLEAR     47  40  76 SE8       30.38R
CASPER         CLEAR     52  32  46 E8        30.34R
CHEYENNE       PTCLDY    54  43  66 W3        30.36R
SCOTTSBLUFF    CLEAR     54  32  43 N9        30.28R
GRAND ISLAND   CLEAR     56  46  69 N6        30.17R
OMAHA          CLEAR     61  49  64 N5        30.10R
SIOUX FALLS    CLEAR     53  43  68 W8        30.09R
PIERRE         CLEAR     53  39  59 N8        30.14R
RAPID CITY     CLEAR     48  28  46 NW7       30.24R
BISMARCK       PTCLDY    54  38  54 W5        30.11S
KANSAS CITY    CLEAR     64  54  69 NW6       30.09R
HILL CITY      CLEAR     60  49  66 NE3       30.20R
WICHITA        MOCLDY    68  54  60 CALM      30.11R
DODGE CITY     CLOUDY    66  53  63 W6        30.20R
OKLAHOMA CITY  CLOUDY    74  55  51 NE16G26   30.05S
DALLAS         CLOUDY    88  77  69 S7        29.90R THUNDER HX 100
AMARILLO       CLOUDY    67  50  54 NE21G28   30.21R
$$




USA.gov is the U.S. government's official web portal to all federal, state and local government web resources and services.